Flag Weather past 2 weeks in Kingstown, Saint Vincent and Grenadines

Now
82 °F

Passing clouds.


Feels Like: 89 °F
Forecast: 81 / 85 °F
Wind: 10 mph from East

Location: Arnos Vale

Current Time: Nov 21, 2014 at 11:14:52 PM

Latest Report: Nov 21, 2014 at 10:00 PM


Visibility: N/A

Pressure: 29.95 "Hg

Humidity: 79%

Dew point: 75 °F

Location of KingstownLocation

Historic Weather in Kingstown — Graph

°F

Kingstown temperature yesterday

Maximum temperature yesterday: 88 °F (at 11:00 AM)
Minimum temperature yesterday: 75 °F (at 9:00 PM)
Average temperature yesterday: 82 °F

Past Weeks' High & Low Weather Summary

 TemperatureHumidityPressure
High88 °F (Nov 7, 11:00 AM)100% (Nov 20, 9:00 PM)30.09 "Hg (Nov 20, 9:00 PM)
Low75 °F (Nov 9, 8:00 PM)62% (Nov 18, 3:00 PM)29.83 "Hg (Nov 7, 3:00 PM)
Average83 °F79%29.92 "Hg
* Reported Nov 6 10:00 PM — Nov 21 10:00 PM, Kingstown, Weather by CustomWeather, © 2014

Note: Actual official high and low records may vary slightly from our data, if they occured in-between our weather recording intervals... More about our weather records

Advertising

Kingstown weather history for previous 24 hours

 ConditionsComfort  
Time TempWeatherWind HumidityBarometerVisibility
10:00 PM
Nov 21
82 °FPassing clouds.10 mph79%29.95 "HgN/A
9:00 PM82 °FPassing clouds.13 mph79%29.95 "HgN/A
8:00 PM81 °FPassing clouds.13 mph79%29.89 "HgN/A
7:00 PM81 °FPassing clouds.13 mph84%29.89 "HgN/A
6:00 PM81 °FPassing clouds.14 mph84%29.89 "HgN/A
5:00 PM81 °FPartly sunny.17 mph79%29.89 "HgN/A
4:00 PM82 °FPartly sunny.16 mph74%29.89 "HgN/A
3:00 PM82 °FPartly sunny.18 mph79%29.92 "HgN/A
2:00 PM82 °FBroken clouds.22 mph79%29.92 "HgN/A
1:00 PM81 °FSprinkles. Scattered clouds.23 mph89%29.95 "HgN/A
12:00 PM81 °FSprinkles. Partly sunny.23 mph89%29.95 "HgN/A
11:00 AM84 °FScattered clouds.21 mph74%29.98 "HgN/A
10:00 AM84 °FScattered clouds.18 mph74%29.98 "HgN/A
9:00 AM81 °FBroken clouds.13 mph84%29.98 "HgN/A
8:00 AM79 °FScattered clouds.13 mph84%29.98 "HgN/A
7:00 AM77 °FScattered clouds.13 mph83%29.95 "HgN/A
6:00 AM79 °FPassing clouds.14 mph84%29.92 "HgN/A
11:00 PM
Nov 20
79 °FPassing clouds.10 mph84%29.95 "HgN/A
Weather by CustomWeather, © 2014

See weather overviewHow to use our weather pages